sat.trackr.live / text

‹ back to catalog

ONEWEB-0213

NORAD 48790 · 2021-045Z

PAYLOAD ACTIVE UNKNOWN

§ Identity

Operator
Country
UK
Launch date
2021-05-28
Launch site
VOSTO
Launch vehicle
Mass (kg)
RCS (m²)

Purposes: comms

External: N2YO · Heavens-Above · Gunter

§ Orbital elements

Epoch: 2026-09-13T00:04:22.374336Z

Period
109.46 min
Inclination
87.8981°
Eccentricity
0.0002195
Mean motion
13.15548455 rev/d
Perigee alt
1,200.1 km
Apogee alt
1,203.4 km
Semi-major
7,579.9 km
B*
-2.6959e-4
RAAN
241.6891°
Arg perigee
79.0550°
Mean anomaly
281.0828°
Rev number
25,598

§ Raw data

ONEWEB-02131 48790U 21045Z   26256.00303674 -.00000089  00000+0 -26959-3 0  99962 48790  87.8981 241.6891 0002195  79.0550 281.0828 13.15548455255984

JSON: /api/v1/satellites/48790 · /tle

For live sub-satellite position, see the globe view (requires WebGL).

§ Visibility from observer

Set your observer location to see the next 7 days of passes ≥ 10°. The values pass through the URL so the page stays shareable.

No JS? Fill the form by hand. The geolocation button needs JavaScript.